This is the latest recevied weather packets stored in our database for station/object TA1FM. If no packets are shown the sender has not sent any weather packets the latest 10 day(s).
| Time | Temp. | Humidity | Pressure | Rain* | Wind** | Luminosity | Snow |
|---|---|---|---|---|---|---|---|
| 1778182123 | 14.44° C | 30% | 914.5 hPa | - | - | - | - |
| 1778181222 | 15° C | 29% | 914.4 hPa | - | - | - | - |
| 1778180322 | 15° C | 31% | 914.5 hPa | - | - | - | - |
| 1778179422 | 15° C | 34% | 914.3 hPa | - | - | - | - |
| 1778178522 | 15° C | 35% | 914.2 hPa | - | - | - | - |
| 1778177622 | 15.56° C | 36% | 913.9 hPa | - | - | - | - |
| 1778176722 | 15.56° C | 37% | 913.8 hPa | - | - | - | - |
| 1778174921 | 15.56° C | 35% | 913.8 hPa | - | - | - | - |
| 1778174021 | 16.11° C | 34% | 913.7 hPa | - | - | - | - |
| 1778173121 | 16.11° C | 34% | 913.8 hPa | - | - | - | - |
| 1778172221 | 16.67° C | 33% | 913.7 hPa | - | - | - | - |
| 1778171321 | 16.67° C | 32% | 913.6 hPa | - | - | - | - |
| 1778170421 | 17.22° C | 32% | 913.7 hPa | - | - | - | - |
| 1778169520 | 17.78° C | 33% | 913.8 hPa | - | - | - | - |
| 1778168620 | 17.78° C | 33% | 913.7 hPa | - | - | - | - |
| 1778167720 | 17.78° C | 34% | 913.9 hPa | - | - | - | - |
| 1778166820 | 18.33° C | 34% | 913.9 hPa | - | - | - | - |
| 1778165920 | 18.89° C | 35% | 914 hPa | - | - | - | - |
| 1778165020 | 19.44° C | 36% | 914.1 hPa | - | - | - | - |
| 1778164119 | 19.44° C | 36% | 914 hPa | - | - | - | - |
| 1778163219 | 19.44° C | 36% | 914.2 hPa | - | - | - | - |
| 1778162319 | 19.44° C | 35% | 914.1 hPa | - | - | - | - |
| 1778161419 | 20° C | 35% | 914.2 hPa | - | - | - | - |
| 1778160519 | 20° C | 37% | 914.3 hPa | - | - | - | - |
| 1778159619 | 20° C | 36% | 914.3 hPa | - | - | - | - |
* Rain since midnight (hover to see other rain measurements)
** Current wind speed in m/s (hover to see current wind gust speed)